Weather History for The Villages, FL

Change the Weather History Date:

Wednesday, January 23, 2013

  Actual Average (KLEE) Record (KLEE)
Temperature  
Mean Temperature 52 °F -  
Max Temperature 64 °F 69 °F 83 °F (1962)
Min Temperature 39 °F 43 °F 20 °F (1985)
Degree Days  
Heating Degree Days 14    
Growing Degree Days 2 (Base 50)    
Moisture  
Dew Point 34 °F    
Average Humidity 56    
Maximum Humidity 81    
Minimum Humidity 26    
Precipitation  
Precipitation 0.00 in - - ()
Sea Level Pressure  
Sea Level Pressure 30.33 in    
Wind  
Wind Speed 1 mph (North)    
Max Wind Speed 9 mph    
Max Gust Speed -    
Visibility 9 miles    
Events      
Averages and records for this station are not official NWS values.
T = Trace of Precipitation, MM = Missing Value Source: NWS Daily Summary

Daily Weather History Graph

Daily Weather History Graph

Search for Another Location

Airport:

Trip Planner

Search our weather history database for the weather conditions in past years. The results will help you decide how hot, cold, wet, or windy it might be!

Date:

Astronomy

Jan. 23, 2013 Rise Set
Actual Time 7:20 AM EST 5:59 PM EST
Civil Twilight 6:55 AM EST 6:24 PM EST
Nautical Twilight 6:26 AM EST 6:53 PM EST
Astronomical Twilight 5:58 AM EST 7:21 PM EST
Moon 3:12 PM EST (1/23) 4:27 AM EST (1/23)
Length of Visible Light 11h 29m
Length of Day
10h 39m
Waxing Gibbous, 89% of the Moon is Illuminated
Jan 23
Waxing Gibbous
Jan 26
Full
Feb 3
Last Quarter
Feb 10
New
Feb 17
First Quarter

Hourly Weather History & Observations

Time (EST) Temp. Windchill Dew Point Humidity Pressure Visibility Wind Dir Wind Speed Gust Speed Precip Events Conditions
12:15 AM 44.6 °F - 39.2 °F 81% 30.31 in 10.0 mi Calm Calm - N/A   Unknown
12:35 AM 44.6 °F - 39.2 °F 81% 30.31 in 10.0 mi Calm Calm - N/A   Unknown
12:55 AM 44.6 °F - 37.4 °F 76% 30.31 in 10.0 mi Calm Calm - N/A   Unknown
1:15 AM 44.6 °F - 37.4 °F 76% 30.31 in 10.0 mi Calm Calm - N/A   Unknown
1:55 AM 44.6 °F - 35.6 °F 71% 30.30 in 10.0 mi Calm Calm - N/A   Unknown
2:15 AM 44.6 °F 41.4 °F 35.6 °F 71% 30.31 in 10.0 mi NNW 5.8 mph - N/A   Unknown
2:35 AM 44.6 °F - 35.6 °F 71% 30.31 in 10.0 mi Calm Calm - N/A   Unknown
2:55 AM 44.6 °F - 35.6 °F 71% 30.31 in 10.0 mi Calm Calm - N/A   Unknown
3:15 AM 44.6 °F - 33.8 °F 66% 30.32 in 10.0 mi Calm Calm - N/A   Unknown
3:35 AM 44.6 °F - 32.0 °F 61% 30.32 in 10.0 mi Calm Calm - N/A   Unknown
3:55 AM 44.6 °F - 32.0 °F 61% 30.32 in 10.0 mi Calm Calm - N/A   Unknown
4:15 AM 44.6 °F - 32.0 °F 61% 30.33 in 10.0 mi Calm Calm - N/A   Unknown
4:35 AM 44.6 °F - 32.0 °F 61% 30.33 in 10.0 mi Calm Calm - N/A   Unknown
4:55 AM 44.6 °F - 32.0 °F 61% 30.33 in 10.0 mi Calm Calm - N/A   Unknown
5:15 AM 44.6 °F - 32.0 °F 61% 30.33 in 10.0 mi Calm Calm - N/A   Unknown
5:35 AM 42.8 °F - 32.0 °F 66% 30.33 in 10.0 mi Calm Calm - N/A   Unknown
5:55 AM 42.8 °F - 32.0 °F 66% 30.34 in 10.0 mi Calm Calm - N/A   Unknown
6:15 AM 41.0 °F - 32.0 °F 70% 30.35 in 10.0 mi Calm Calm - N/A   Unknown
6:35 AM 39.2 °F - 33.8 °F 81% 30.35 in 10.0 mi Calm Calm - N/A   Unknown
6:55 AM 39.2 °F - 33.8 °F 81% 30.35 in 10.0 mi Calm Calm - N/A   Unknown
7:15 AM 41.0 °F - 33.8 °F 76% 30.36 in 9.0 mi Calm Calm - N/A   Unknown
7:35 AM 39.2 °F - 33.8 °F 81% 30.36 in 9.0 mi Calm Calm - N/A   Unknown
7:55 AM 41.0 °F - 33.8 °F 76% 30.36 in 9.0 mi Calm Calm - N/A   Unknown
8:15 AM 44.6 °F - 35.6 °F 71% 30.37 in 9.0 mi Calm Calm - N/A   Unknown
8:35 AM 46.4 °F 44.3 °F 33.8 °F 62% 30.37 in 10.0 mi NE 4.6 mph - N/A   Unknown
8:55 AM 50.0 °F - 33.8 °F 54% 30.38 in 10.0 mi Calm Calm - N/A   Unknown
9:15 AM 51.8 °F - 32.0 °F 47% 30.38 in 9.0 mi Calm Calm - N/A   Unknown
9:35 AM 53.6 °F - 30.2 °F 41% 30.39 in 9.0 mi NE 5.8 mph - N/A   Unknown
9:55 AM 55.4 °F - 32.0 °F 41% 30.40 in 9.0 mi North 5.8 mph - N/A   Unknown
10:15 AM 55.4 °F - 32.0 °F 41% 30.40 in 9.0 mi North 8.1 mph - N/A   Unknown
10:35 AM 57.2 °F - 32.0 °F 38% 30.41 in 9.0 mi NNW 8.1 mph - N/A   Unknown
10:55 AM 57.2 °F - 32.0 °F 38% 30.40 in 9.0 mi NNE 9.2 mph - N/A   Unknown
11:15 AM 59.0 °F - 30.2 °F 34% 30.39 in 9.0 mi North 9.2 mph - N/A   Unknown
11:55 AM 60.8 °F - 30.2 °F 31% 30.38 in 10.0 mi North 6.9 mph - N/A   Unknown
12:15 PM 60.8 °F - 30.2 °F 31% 30.37 in 10.0 mi NNE 6.9 mph - N/A   Light Drizzle
12:55 PM 62.6 °F - 30.2 °F 30% 30.34 in 9.0 mi North 6.9 mph - N/A   Unknown
1:15 PM 62.6 °F - 30.2 °F 30% 30.33 in 9.0 mi North 5.8 mph - N/A   Unknown
1:35 PM 64.4 °F - 30.2 °F 28% 30.32 in 9.0 mi North 5.8 mph - N/A   Unknown
1:55 PM 64.4 °F - 30.2 °F 28% 30.32 in 9.0 mi Calm Calm - N/A   Unknown
2:15 PM 64.4 °F - 28.4 °F 26% 30.30 in 9.0 mi North 6.9 mph - N/A   Unknown
2:35 PM 64.4 °F - 28.4 °F 26% 30.30 in 9.0 mi North 6.9 mph - N/A   Unknown
2:55 PM 64.4 °F - 28.4 °F 26% 30.30 in 7.0 mi Calm Calm - N/A   Unknown
3:15 PM 64.4 °F - 28.4 °F 26% 30.30 in 5.0 mi Calm Calm - N/A   Haze
4:15 PM 64.4 °F - 28.4 °F 26% 30.31 in 6.0 mi Calm Calm - N/A   Haze
4:35 PM 64.4 °F - 30.2 °F 28% 30.31 in 7.0 mi Calm Calm - N/A   Unknown
4:55 PM 64.4 °F - 30.2 °F 28% 30.31 in 7.0 mi NNE 4.6 mph - N/A   Unknown
5:15 PM 62.6 °F - 30.2 °F 30% 30.31 in 6.0 mi Calm Calm - N/A   Haze
5:55 PM 60.8 °F - 32.0 °F 34% 30.32 in 8.0 mi Calm Calm - N/A   Unknown
6:15 PM 60.8 °F - 33.8 °F 36% 30.32 in 9.0 mi Calm Calm - N/A   Unknown
6:35 PM 57.2 °F - 35.6 °F 44% 30.32 in 9.0 mi Calm Calm - N/A   Unknown
6:55 PM 55.4 °F - 35.6 °F 47% 30.32 in 9.0 mi Calm Calm - N/A   Unknown
7:15 PM 53.6 °F - 35.6 °F 51% 30.32 in 8.0 mi Calm Calm - N/A   Unknown
7:35 PM 51.8 °F - 37.4 °F 58% 30.32 in 10.0 mi Calm Calm - N/A   Unknown
7:55 PM 51.8 °F - 37.4 °F 58% 30.32 in 10.0 mi Calm Calm - N/A   Unknown
8:15 PM 51.8 °F - 37.4 °F 58% 30.32 in 9.0 mi Calm Calm - N/A   Unknown
8:35 PM 48.2 °F - 37.4 °F 66% 30.32 in 8.0 mi Calm Calm - N/A   Unknown
8:55 PM 48.2 °F - 37.4 °F 66% 30.32 in 9.0 mi Calm Calm - N/A   Unknown
9:15 PM 50.0 °F - 37.4 °F 62% 30.32 in 9.0 mi Calm Calm - N/A   Unknown
9:35 PM 46.4 °F - 39.2 °F 76% 30.32 in 9.0 mi Calm Calm - N/A   Unknown
9:55 PM 46.4 °F - 39.2 °F 76% 30.33 in 9.0 mi Calm Calm - N/A   Unknown
10:15 PM 46.4 °F - 39.2 °F 76% 30.33 in 9.0 mi Calm Calm - N/A   Unknown
10:35 PM 46.4 °F - 39.2 °F 76% 30.33 in 10.0 mi Calm Calm - N/A   Unknown
10:55 PM 44.6 °F - 39.2 °F 81% 30.33 in 10.0 mi Calm Calm - N/A   Unknown
11:15 PM 44.6 °F - 39.2 °F 81% 30.34 in 10.0 mi Calm Calm - N/A   Unknown
11:35 PM 44.6 °F - 39.2 °F 81% 30.32 in 9.0 mi Calm Calm - N/A   Unknown
11:55 PM 44.6 °F - 39.2 °F 81% 30.31 in 9.0 mi Calm Calm - N/A   Unknown